{"data":{"norad_id":52908,"intl_designator":"2022-068B","name":"YAOGAN-35 02B","alt_names":[],"object_type":"PAYLOAD","status":"ACTIVE","operator":null,"country":"PRC","launch_date":"2022-06-23","launch_site_code":"XICLF","launch_vehicle":null,"mission":null,"orbit_class":"UNKNOWN","rcs_meters":null,"size_class":null,"mass_kg":null,"dimensions":null,"purposes":[],"wikipedia_slug":null,"has_3d_model":false,"image_url":null,"decayed_at":null,"tle_current":{"epoch":"2026-05-25T05:36:46.948608Z","epoch_age_seconds":51940,"freshness":"FRESH","line1":"1 52908U 22068B   26145.23387672  .00068772  00000+0  92788-3 0  9994","line2":"2 52908  34.9954 210.3622 0004061 178.7343 181.3393 15.56603319219111","mean_motion":15.56603319,"eccentricity":0.0004061,"inclination_deg":34.9954,"raan_deg":210.3622,"arg_perigee_deg":178.7343,"mean_anomaly_deg":181.3393,"bstar":0.00092788,"rev_number":21911,"period_min":92.509117925117,"perigee_km":394.74439525461,"apogee_km":400.24756436081,"semimajor_km":6775.6329798077,"source":"CELESTRAK","updated_at":"2026-05-25T13:37:57.956528Z"}}}